sat.trackr.live / text

‹ back to catalog

STARLINK-3264

NORAD 50198 · 2021-125AU

PAYLOAD ACTIVE UNKNOWN

§ Identity

Operator
Country
US
Launch date
2021-12-18
Launch site
AFWTR
Launch vehicle
Mass (kg)
RCS (m²)

Purposes: comms

External: N2YO · Heavens-Above · Gunter

§ Orbital elements

Epoch: 2026-09-19T21:09:34.250688Z

Period
94.87 min
Inclination
53.1574°
Eccentricity
0.0002061
Mean motion
15.17812612 rev/d
Perigee alt
511.0 km
Apogee alt
513.9 km
Semi-major
6,890.6 km
B*
9.0535e-4
RAAN
83.0919°
Arg perigee
127.2547°
Mean anomaly
232.8636°
Rev number
26,610

§ Raw data

STARLINK-32641 50198U 21125AU  26262.88164642  .00018265  00000+0  90535-3 0  99972 50198  53.1574  83.0919 0002061 127.2547 232.8636 15.17812612266106

JSON: /api/v1/satellites/50198 · /tle

For live sub-satellite position, see the globe view (requires WebGL).

§ Visibility from observer

Set your observer location to see the next 7 days of passes ≥ 10°. The values pass through the URL so the page stays shareable.

No JS? Fill the form by hand. The geolocation button needs JavaScript.